Tracking 19219 objects as of 19-Jul-2018
HD Live streaming from Space Station
objects crossing your sky now

FENGYUN 1C DEB

Track FENGYUN 1C DEB now!
10-day predictions


NORAD ID: 37902
Int'l Code: 1999-025ENB
Perigee: 847.1 km
Apogee: 1,361.8 km
Inclination: 98.7 °
Period: 107.2 minutes
Semi major axis: 7475 km
RCS: 0.0026 m2 (small)
Launch date: May 10, 1999
Source: People's Republic of China (PRC)
Launch site: Taiyaun Space Center, China (TSC)

Note: This is SATELLITE DEBRIS
aabbcc
Your satellite tracking list
Your tracking list is empty




NASA's NSSDC Master Catalog

Two Line Element Set (TLE):
1 37902U 99025ENB 18199.69425666  .00000325  00000-0  44391-3 0  9992
2 37902  98.6856  16.2064 0344283   2.4713 357.8026 13.43226524413804
Source of the keplerian elements: AFSPC